This demonstration page uses our WeatherBlox Daily Observations layout. Learn more.

Left ArrowRight Arrow

34.74481, -87.66753

Hourly Observations for May 15, 2019

Temp ( °F °C ) Dew Point ( °F °C ) Humidity (%) Winds ( mph kmh ) Pressure ( in mb ) Visibility ( mi km ) Precip ( " mm )
12:53 am 00:53 Clear 56 13.3 52 11.1 87 87 Calm 30.04 1017 10 16 0.00 0.00
1:53 am 01:53 Partly Cloudy 55 12.8 52 11.1 90 90 Calm 30.03 1017 10 16 0.00 0.00
2:53 am 02:53 Clear 54 12.2 52 11.1 93 93 Calm 30.02 1017 10 16 0.00 0.00
3:53 am 03:53 Clear 53 11.7 51 10.6 93 93 Calm 30.01 1016 10 16 0.00 0.00
4:53 am 04:53 Clear 53 11.7 51 10.6 93 93 Calm 30.02 1017 10 16 0.00 0.00
5:53 am 05:53 Sunny 53 11.7 51 10.6 93 93 Calm 30.03 1017 10 16 0.00 0.00
6:53 am 06:53 Mostly Cloudy 57 13.9 54 12.2 90 90 Calm 30.04 1017 10 16 0.00 0.00
7:53 am 07:53 Mostly Cloudy 61 16.1 54 12.2 78 78 SSE 3 6 30.05 1018 10 16 0.00 0.00
8:53 am 08:53 Partly Cloudy 66 18.9 52 11.1 61 61 SSE 6 9 30.06 1018 10 16 0.00 0.00
9:53 am 09:53 Partly Cloudy 71 21.7 52 11.1 51 51 S 9 15 30.05 1018 10 16 0.00 0.00
10:53 am 10:53 Cloudy 67 19.4 53 11.7 61 61 E 9 15 30.07 1018 10 16 0.00 0.00
11:53 am 11:53 Mostly Cloudy 71 21.7 54 12.2 55 55 ESE 7 11 30.06 1018 10 16 0.00 0.00
12:34 pm 12:34 Mostly Cloudy 66 18.9 56 13.3 70 70 NE 16 26 30.10 1019 10 16 0.00 0.00
12:53 pm 12:53 Mostly Cloudy 64 17.8 54 12.2 70 70 NNE 15 24 30.12 1020 10 16 0.00 0.00
1:53 pm 13:53 Cloudy with Light Rain 63 17.2 58 14.4 84 84 SSE 15 24 30.00 1016 10 16 0.10 2.54
2:53 pm 14:53 Mostly Sunny 70 21.1 60 15.6 71 71 SSE 8 13 30.00 1016 10 16 0.01 0.25
3:53 pm 15:53 Sunny 74 23.3 60 15.6 62 62 S 8 13 29.98 1015 10 16 0.00 0.00
4:53 pm 16:53 Mostly Cloudy 77 25 61 16.1 58 58 S 6 9 29.96 1015 10 16 0.00 0.00
5:53 pm 17:53 Sunny 78 25.6 61 16.1 56 56 S 7 11 29.95 1014 10 16 0.00 0.00
6:53 pm 18:53 Mostly Cloudy 75 23.9 63 17.2 66 66 S 5 7 29.95 1014 10 16 0.00 0.00
7:53 pm 19:53 Mostly Cloudy 70 21.1 64 17.8 82 82 ESE 6 9 29.96 1014 10 16 0.00 0.00
8:13 pm 20:13 Mostly Cloudy with Nearby Thunderstorms 69 20.6 64 17.8 84 84 NNE 7 11 29.97 1015 10 16 0.00 0.00
8:53 pm 20:53 Clear 68 20 64 17.8 87 87 E 7 11 29.98 1015 10 16 0.00 0.00
9:53 pm 21:53 Mostly Clear 67 19.4 63 17.2 87 87 E 6 9 29.99 1016 10 16 0.00 0.00
10:53 pm 22:53 Partly Cloudy 66 18.9 63 17.2 90 90 ESE 5 7 29.99 1016 10 16 0.00 0.00
11:53 pm 23:53 Partly Cloudy 65 18.3 63 17.2 93 93 ESE 3 6 29.98 1015 10 16 0.00 0.00

Powered by AerisWeather